ECMWFFLT1_con_mucape_132.txt.gz
CAPE
144 127 122 132 142 153 197 417 473 626 753 1073 1168 1216 1399 1605 1716 1794 1912 2131 2276 2244 2336 2534 2686 2326 2087 2274 2506 2806 2363 2127 2429 1807 1946 2076 2416 2595 2453 2508 2460 2302 2278 2681 2483 2528 2597 2472 2497 2557 2462 2548 3129 2930 2759 3250 2960 3643 3969 4261 4062 3961 3499
124 117 135 152 165 152 143 353 377 435 564 974 1096 1250 1389 1509 1597 1680 1870 2053 2200 2184 2189 2434 2629 2398 2209 2422 2485 3059 2574 2756 2593 2531 2215 2643 3017 2527 2666 2739 2468 2293 2413 2839 2868 2342 2322 2396 2410 2539 2527 2682 3136 2865 2868 3198 3082 3510 3727 4005 3867 3737 3712
132 122 119 153 164 180 189 398 387 378 476 899 1052 1279 1401 1458 1471 1547 1732 1956 2067 2089 2081 2224 2544 2528 2431 2568 2753 3098 2941 3100 2770 2512 2400 2668 2746 2552 2586 2884 2532 2344 2226 2657 3008 2535 2217 2243 2418 2416 2464 2415 2832 3078 2996 3142 3231 3424 3424 3636 3946 3909 3718
173 101 118 144 165 178 368 441 461 457 573 860 1071 1315 1413 1476 1421 1422 1611 1839 1922 2004 1984 1902 2377 2480 2510 2507 2962 3020 3090 3169 2934 2503 2448 2684 2733 2417 2427 2669 2647 2463 2403 2522 2842 2815 2976 2497 2638 2387 3215 2322 2656 2936 2983 3076 2965 3070 3178 3262 3305 3491 3145
230 148 180 168 126 275 406 470 529 511 486 820 1098 1381 1456 1536 1460 1400 1514 1713 1825 1963 2036 1951 2229 2340 2441 2344 2978 2964 3091 3023 3059 2677 2524 2606 2784 2509 2282 2173 2392 2480 2572 2644 2719 2764 2921 2800 2781 2542 2807 2168 2426 2907 2704 2903 2870 2894 3006 3391 3054 3249 3408
235 298 187 162 84 184 419 444 548 542 506 744 1080 1348 1495 1592 1557 1514 1572 1745 1735 1931 2082 2099 2270 2238 2207 2200 2818 2912 3016 2902 2891 2808 2658 2395 2527 2526 2367 2161 2039 2265 2429 2628 2748 2652 2709 2742 2740 2786 2890 2218 2537 2916 2643 2668 2763 2746 2752 3525 3212 3133 3469
209 348 132 147 165 198 384 437 488 535 483 562 994 1297 1489 1597 1609 1650 1714 1826 1879 1952 2049 2132 2251 2269 2114 2288 2592 2896 2884 2801 2720 2739 2650 2526 2090 2369 2238 2358 2526 2295 2358 2454 2480 2446 2514 2527 2459 2914 2991 2736 2875 2906 2800 2699 2777 2723 2598 3336 3471 3289 3418
256 354 235 153 105 183 304 383 392 381 260 438 946 1335 1462 1542 1610 1736 1836 1927 1967 1964 1979 2044 2144 2206 2205 2349 2425 2735 2821 2742 2569 2546 2450 2414 2161 1929 2110 2237 2282 2362 2432 2343 2285 2143 2072 2427 2565 2819 2729 2924 2863 2962 2902 2757 2729 2848 2618 3020 3346 3272 3088
735 549 263 114 83 178 190 293 330 286 331 476 954 1324 1418 1569 1650 1774 1914 2077 2039 2053 1974 1942 2003 2050 2139 2313 2456 2461 2644 2667 2595 2403 2340 2209 2174 2098 2013 2012 2105 2188 2101 1954 2108 2100 1812 2288 2566 2703 2704 2724 2817 2849 2866 2718 2577 2625 2728 2739 3086 3197 3124
555 492 516 704 70 113 145 202 274 269 422 472 885 1264 1393 1632 1730 1778 1904 2144 2111 2177 2102 1998 1937 1924 1993 2118 2421 2419 2354 2526 2621 2375 2383 2218 2166 2189 2031 1884 2098 2108 2067 1933 1921 1971 1870 1908 2299 2574 2673 2646 2646 2669 2699 2708 2669 2512 2591 2760 2735 2798 2920
516 951 1155 611 562 160 85 61 116 117 382 471 745 1004 1315 1639 1786 1807 1868 2095 2081 2156 2187 2116 2000 1948 1861 1896 2104 2317 2157 2157 2431 2414 2358 2237 1982 1785 1601 1608 1646 1704 1948 2004 1867 1865 1755 1625 1939 2351 2595 2577 2496 2491 2592 2632 2585 2510 2576 2692 2834 2805 2810
397 599 1066 552 700 293 212 44 113 163 297 475 727 840 1050 1432 1757 1820 1849 2030 2005 2010 2135 2156 2079 1966 1944 1893 1937 1980 2059 1954 2017 2177 2120 2052 1950 1728 1531 1669 1630 1639 1788 1800 1752 1785 1926 1800 1802 1887 2269 2482 2451 2318 2245 2200 2286 2393 2465 2706 2903 2933 2958
270 485 947 663 487 438 146 13 80 208 339 391 664 814 1013 1222 1577 1747 1835 1950 2019 2002 2024 2112 2097 1982 1945 1903 1838 1674 1632 1781 1820 1916 1943 1909 1810 1668 1609 1602 1521 1524 1530 1660 1507 1597 1662 1892 1995 1917 1876 2056 2151 2215 2278 2331 2502 2628 2577 2602 2659 2718 2759
977 1260 1083 899 799 440 214 64 109 121 420 385 594 712 885 1120 1320 1440 1609 1751 1941 2040 2034 2091 2129 1958 1784 1742 1664 1499 1498 1605 1621 1648 1704 1760 1726 1612 1621 1625 1560 1630 1578 1488 1474 1382 1347 1597 1578 1645 1944 1953 1964 1979 2196 2212 2292 2287 2368 2435 2455 2404 2430
946 889 920 930 681 633 548 471 320 201 229 405 528 706 788 1023 1199 1280 1435 1562 1693 1882 2011 2000 1997 1866 1647 1580 1550 1369 1322 1408 1418 1504 1527 1508 1575 1632 1681 1612 1404 1500 1640 1588 1561 1470 1407 1358 1595 1911 2064 1937 2012 2171 2432 2542 2398 2352 2381 2589 2610 2562 2648
990 960 810 915 584 595 670 698 605 540 580 914 554 819 1075 1035 1100 1240 1401 1528 1650 1719 1798 1758 1751 1645 1471 1353 1364 1301 1222 1176 1039 1161 1265 1249 1190 1198 1240 1405 1355 1367 1433 1565 1565 1531 1456 1332 1206 1595 2052 2217 2132 1989 2031 2210 2782 3242 3599 3479 3060 2678 2614
1034 685 809 803 548 597 571 636 737 878 1112 988 762 961 1514 1540 1430 1292 1436 1452 1429 1490 1524 1512 1451 1342 1222 1106 1098 1150 1186 1130 1099 1092 1097 1250 915 996 867 668 767 1235 1371 1331 1371 1442 1443 1318 1209 1318 1565 2002 2242 2022 1736 1825 2230 2596 2656 2734 2855 3033 2829
1171 1007 1017 817 858 741 600 731 845 1032 965 943 763 1114 1546 1672 1485 1313 1498 1489 1239 1316 1352 1240 1423 1357 1135 1017 1008 1063 1086 1078 1163 1124 1214 1919 2082 2085 2251 2370 2280 1833 1400 1309 1341 1409 1396 1316 1264 1258 1284 1371 1726 2093 2211 2133 2007 2137 2207 2156 2187 2398 2523
881 914 912 1050 1009 844 593 540 728 1095 1191 1094 1031 1123 1371 1550 1578 1294 1294 1447 1289 1524 1504 1250 1540 1743 1640 1674 1976 1797 1261 1110 1108 1086 1724 2199 2530 2779 2679 2284 2092 1913 1722 1580 1688 1728 1266 1253 1162 1150 1246 1220 1072 1267 1705 1971 2008 1861 1704 1495 1193 1320 1670
800 766 725 921 812 947 691 650 659 936 1125 1235 1247 1039 905 1250 1495 1450 1141 965 1448 1551 1575 1261 1012 1573 2120 2017 2104 2176 2130 1965 1477 1348 1829 2086 2263 2470 2524 2294 1983 1893 1786 1710 1838 1917 1604 1216 892 738 735 666 682 745 915 1146 1315 1411 1442 1394 1190 892 706
908 748 662 616 774 876 906 764 744 813 1013 1263 1344 1143 1308 1415 1261 1208 1360 1248 1238 1924 1804 1634 1184 1605 2041 2090 2233 2276 2245 1986 1709 1317 1298 1808 2067 2062 2202 2208 2147 1932 1844 1899 1916 1868 1586 1128 802 650 562 498 523 564 600 616 603 548 539 537 517 508 822
505 434 510 625 668 644 859 880 736 726 725 724 811 956 969 1367 1279 1360 1294 1254 1212 1433 1691 1961 1825 1316 1647 2178 2249 2321 2377 2308 2029 1466 1172 1345 1745 2009 2143 2122 2066 2014 2022 1957 1916 1983 1877 1540 1179 861 663 534 461 403 369 293 341 413 436 464 515 1053 1634
572 612 549 615 630 618 634 931 802 846 854 872 817 680 708 1178 1441 1608 1548 1463 1263 1404 1430 1618 1760 1881 1749 1496 2046 2289 2293 2245 2006 1544 1431 1276 1412 1779 1933 1984 2148 2128 2154 2276 2199 1992 1886 1880 1835 1573 1173 881 744 642 592 505 459 419 391 427 576 1110 1467
46 55 320 522 760 897 780 972 1119 1202 1216 1107 1118 1084 1055 1184 1461 1667 1770 1668 1768 1676 1532 1485 1597 1634 1651 1648 1680 1867 2222 2277 1965 1788 1732 1837 1620 1556 1663 1826 1840 1875 1773 1921 2258 2290 2078 2005 1864 1806 1769 1653 1468 1235 1124 948 780 707 625 562 497 697 1096
107 109 137 380 505 895 819 911 1099 1169 1267 1368 1239 1250 1083 1182 1387 1400 1247 1406 1626 1715 1659 1641 1595 1513 1450 1446 1480 1549 1600 1716 1861 1909 1702 1718 1745 1635 1401 1538 1818 1651 1570 1644 1804 1944 1877 1786 1793 1758 1658 1567 1555 1554 1545 1552 1458 1292 1152 1005 863 746 766
25 12 33 232 331 530 716 798 913 969 964 935 985 997 970 919 869 826 780 846 989 1194 1415 1489 1559 1568 1359 1175 1210 1281 1265 1329 1588 1750 1760 1599 1509 1576 1319 1233 1482 1448 1456 1443 1402 1460 1423 1366 1330 1329 1342 1287 1283 1236 1225 1277 1354 1416 1430 1444 1349 1206 1024
22 1 1 0 183 344 466 542 601 631 693 754 739 753 779 895 940 889 764 723 695 702 786 773 881 1141 1294 1324 1420 1409 1574 1610 1559 1450 1393 1267 1176 1126 1210 1230 1259 1316 1189 1163 991 1099 1130 1073 961 849 882 948 1030 1103 1034 884 968 918 1053 1092 1101 1079 1003
86 0 0 0 102 246 310 360 389 345 379 425 517 612 628 498 388 438 488 508 544 603 622 617 640 694 732 767 954 1142 1139 1188 1141 1111 938 799 727 746 821 888 1031 1080 958 931 965 897 924 885 587 540 453 391 581 527 408 441 436 500 715 735 715 696 649
0 0 0 0 0 30 172 183 125 0 0 134 69 82 80 231 270 313 318 425 441 395 241 419 520 568 436 419 558 633 578 551 480 433 428 426 385 390 304 349 523 624 625 688 721 670 700 586 383 224 291 225 274 244 316 352 336 372 418 422 414 411 421
0 0 0 0 0 0 0 0 0 0 0 0 0 0 0 0 130 236 244 275 254 266 328 337 315 347 309 294 222 190 223 61 181 279 251 299 270 236 187 261 279 271 313 326 358 319 334 299 261 239 200 191 166 190 224 229 284 262 214 168 181 205 267
0 0 0 0 0 0 0 0 0 0 0 0 0 0 0 0 14 142 157 196 207 230 220 87 161 148 188 76 193 100 176 176 36 175 224 254 259 244 199 143 180 193 182 260 280 295 249 196 149 235 182 157 165 216 238 265 176 91 186 222 166 137 156
0 0 0 0 0 0 0 0 0 0 0 0 0 0 0 0 0 0 0 46 98 122 181 184 132 41 66 114 141 157 171 151 105 115 132 129 136 121 100 83 44 16 116 169 75 142 128 73 56 33 43 97 176 204 186 175 99 146 158 112 75 18 12
0 0 0 0 0 0 0 0 0 0 0 0 0 0 0 0 0 0 0 0 0 0 0 0 0 0 0 0 0 0 0 10 62 43 32 113 105 56 9 0 0 0 0 0 0 0 0 0 0 14 40 1 26 50 25 23 41 95 98 80 70 66 61
0 0 0 0 0 0 0 0 0 0 0 0 0 0 0 0 0 0 0 0 0 0 0 0 0 0 0 0 0 0 0 0 0 3 0 0 0 0 0 0 0 0 0 0 0 0 0 0 0 20 18 7 10 9 21 11 0 2 8 0 0 0 0
0 0 0 0 0 0 0 0 0 0 0 0 0 0 0 0 0 0 0 0 0 0 0 0 0 0 0 0 0 0 0 0 0 0 0 0 0 0 0 0 0 0 0 0 0 0 0 0 0 0 0 1 23 13 0 0 0 0 0 0 0 0 0
0 0 0 0 0 0 0 0 0 0 0 0 0 0 0 0 0 0 0 0 0 0 0 2 0 0 0 0 0 0 0 0 0 0 0 0 0 0 0 0 0 0 0 0 0 0 0 0 0 0 2 6 0 0 0 0 0 0 0 0 0 0 0
2 0 0 0 0 0 0 0 0 0 0 0 0 0 0 0 0 0 0 0 0 0 0 0 0 0 0 0 0 0 0 0 0 0 0 0 0 0 0 0 0 0 0 0 0 0 0 0 0 0 0 0 0 0 0 0 0 0 0 0 0 0 0
74 49 4 2 0 0 0 0 0 0 0 0 0 0 0 0 0 0 0 0 0 0 0 0 0 0 0 0 0 22 0 0 0 0 0 0 0 0 0 0 0 0 0 0 0 0 0 0 0 0 0 0 0 0 0 0 0 0 0 0 0 0 0

ECMWFFLT1_con_mucape_135.txt.gz
CAPE
0 2 3 13 68 286 409 492 570 639 809 884 892 970 1201 1451 1517 1534 1606 1677 1747 1820 2071 2236 2348 2195 2001 1983 2258 2116 2096 1553 1771 1657 1761 1672 1498 1801 1796 1783 1853 2002 2160 2150 2372 2629 2640 2627 2650 2565 2506 2536 2699 2727 2624 2614 2696 2810 3130 3365 3300 3602 2969
1 2 5 12 56 220 378 473 558 628 809 916 942 1013 1210 1450 1550 1568 1606 1697 1760 1797 2050 2216 2391 2307 2065 1944 2141 2332 2228 2114 1985 2123 1802 1820 2284 2080 1806 1798 1910 1998 2051 2035 2206 2476 2574 2494 2468 2556 2558 2595 2585 2567 2586 2580 2626 2594 3086 3570 3383 3056 3240
45 7 6 14 45 192 358 434 515 595 786 913 957 1011 1172 1414 1559 1572 1608 1701 1775 1806 1979 2164 2393 2376 2190 1990 2014 2319 2384 2106 2256 1988 1826 1792 2174 2252 2039 1962 2018 2038 2003 2051 2290 2263 2423 2528 2500 2480 2420 2512 2520 2676 2709 2681 2817 2714 2922 3323 3562 3496 3137
61 26 21 20 46 130 309 398 460 544 722 887 955 1000 1126 1352 1521 1574 1596 1674 1765 1809 1906 2070 2328 2384 2273 2085 2022 2198 2495 2390 2342 2105 1879 1859 2177 2291 2245 2333 2150 2092 2076 2146 2520 2532 2351 2390 2477 2479 3003 2385 2354 2503 2710 2703 2820 2876 3028 3084 3171 3327 3366
38 42 31 12 31 61 233 349 402 463 612 853 915 980 1099 1276 1439 1522 1562 1652 1731 1799 1846 1968 2194 2354 2318 2162 2166 2278 2557 2657 2599 2314 2003 1935 2203 2282 2216 2414 2357 2202 2102 2099 2282 2684 2708 2470 2256 2246 2304 2385 2350 2377 2656 2699 2707 2778 2933 2968 2938 2892 2899
16 47 16 22 41 75 158 288 350 414 530 791 924 998 1102 1244 1368 1451 1522 1677 1719 1750 1805 1866 2036 2290 2336 2228 2318 2480 2674 2779 2822 2576 2176 2095 2296 2265 2216 2255 2403 2395 2301 2216 2256 2397 2591 2727 2530 2254 2153 2254 2276 2295 2493 2599 2643 2639 2624 2744 2911 2869 2870
3 88 10 30 55 108 134 256 301 371 463 704 885 1006 1132 1221 1316 1388 1451 1558 1673 1723 1801 1841 1893 2123 2266 2235 2323 2652 2692 2814 2908 2841 2399 2197 2322 2334 2238 2210 2240 2364 2434 2437 2399 2395 2443 2551 2673 2618 2420 2376 2364 2312 2463 2485 2507 2502 2533 2558 2772 2920 2917
10 103 15 28 60 123 148 161 288 329 409 636 820 998 1126 1219 1274 1308 1356 1439 1585 1618 1735 1779 1801 1958 2129 2159 2214 2588 2734 2799 2844 2899 2709 2377 2286 2374 2398 2324 2260 2208 2216 2259 2355 2419 2468 2509 2551 2614 2560 2469 2306 2230 2434 2471 2470 2486 2540 2476 2509 2730 2952
33 93 51 28 51 94 162 170 194 247 363 593 783 1003 1142 1227 1276 1286 1290 1338 1465 1526 1652 1728 1751 1859 1968 2043 2115 2347 2667 2774 2769 2729 2757 2603 2385 2297 2318 2341 2339 2233 1998 1976 2066 2190 2339 2453 2515 2514 2561 2518 2359 2288 2429 2514 2506 2496 2557 2472 2476 2545 2734
108 157 211 221 40 144 168 288 324 320 318 540 757 999 1142 1248 1294 1296 1286 1321 1410 1472 1565 1693 1733 1821 1924 1971 2029 2145 2461 2693 2707 2632 2569 2557 2515 2474 2396 2199 2123 2150 2148 2112 2095 2152 2246 2286 2303 2364 2496 2540 2588 2556 2572 2629 2667 2694 2618 2543 2554 2545 2540
330 426 508 385 260 109 218 312 357 394 392 451 735 976 1146 1255 1308 1336 1366 1391 1455 1465 1484 1604 1694 1766 1886 1954 2002 2019 2197 2486 2644 2619 2466 2371 2376 2399 2355 2244 2088 1992 2092 2128 2134 2179 2207 2163 2048 2103 2326 2443 2496 2570 2624 2659 2717 2755 2706 2622 2544 2526 2555
472 760 558 493 470 237 242 167 204 369 437 454 710 956 1122 1244 1322 1393 1460 1532 1562 1576 1547 1559 1625 1673 1757 1895 1975 2018 2053 2219 2457 2549 2472 2287 2177 2179 2188 2159 2136 2102 1992 2003 2092 2110 1981 1890 1927 1882 2176 2382 2454 2467 2492 2559 2610 2626 2628 2625 2585 2504 2563
590 732 593 437 407 311 128 47 69 156 416 480 664 942 1092 1210 1317 1398 1510 1618 1664 1689 1666 1628 1604 1608 1621 1731 1866 1955 2029 2122 2229 2339 2391 2353 2253 2224 2217 2162 2108 2091 1948 1875 1934 1900 1885 1886 1854 1713 1884 2192 2348 2361 2373 2416 2409 2403 2454 2516 2498 2488 2547
831 785 682 605 470 407 18 24 63 260 371 433 558 898 1066 1202 1313 1404 1490 1636 1735 1747 1785 1734 1643 1581 1552 1590 1702 1782 1903 2025 2156 2196 2202 2296 2355 2313 2259 2166 1940 1801 1578 1507 1588 1661 1705 1826 1842 1781 1752 1889 2113 2234 2298 2358 2346 2279 2282 2286 2302 2357 2484
621 685 794 688 618 542 360 221 202 238 314 379 449 771 1016 1176 1353 1419 1468 1592 1738 1785 1832 1859 1768 1675 1608 1587 1595 1634 1666 1783 1999 2183 2080 2049 2153 2215 2210 2141 1992 1799 1609 1450 1334 1400 1471 1608 1689 1783 1817 1820 1860 1934 2075 2203 2256 2225 2157 2203 2230 2247 2336
871 585 513 529 545 585 559 313 241 243 336 411 419 617 861 1108 1352 1434 1484 1570 1725 1796 1858 1905 1883 1795 1727 1680 1669 1649 1588 1562 1636 1800 1936 1900 1828 1845 1844 1784 1715 1635 1544 1518 1460 1533 1510 1501 1441 1526 1666 1805 1892 1877 1836 1932 2054 2443 3034 2889 2394 2290 2336
817 746 590 388 474 498 541 526 379 442 455 518 514 566 681 885 1222 1479 1522 1565 1690 1815 1880 1878 1878 1840 1743 1718 1718 1716 1722 1711 1643 1583 1597 1660 1701 1637 1592 1549 1485 1461 1479 1493 1389 1517 1523 1491 1491 1435 1393 1522 1676 1742 1802 1926 2196 2927 2412 2674 2842 3213 2239
588 542 476 495 568 551 445 308 266 238 449 554 646 605 577 699 888 1115 1336 1526 1608 1728 1817 1853 1848 1800 1723 1688 1692 1730 1733 1734 1604 1428 1391 1431 1520 1505 1450 1412 1343 1277 1277 1370 1432 1337 1385 1474 1509 1496 1430 1484 1696 1779 1768 1837 1989 2193 2292 2382 2500 2720 2797
613 573 545 396 503 664 653 452 368 418 415 453 430 489 678 777 798 895 1059 1394 1536 1593 1731 1804 1764 1788 1799 1813 1803 1773 1700 1666 1572 1334 1265 1299 1383 1347 1334 1304 1250 1142 1052 972 934 1104 1224 1325 1442 1481 1490 1394 1441 1767 1847 1815 1850 1875 1796 1957 2200 2418 2580
876 637 520 550 437 432 424 432 611 713 560 500 543 502 586 816 909 966 1054 1131 1238 1244 1465 1635 1603 1528 1692 1806 1698 1726 1655 1576 1524 1298 1195 1210 1363 1568 1584 1337 1044 971 962 961 895 885 946 1097 1248 1298 1335 1336 1344 1335 1599 1771 1815 1779 1772 1883 1960 2106 2279
760 827 868 765 723 740 647 626 693 743 576 544 527 463 526 778 887 955 1015 1124 1187 1232 1287 1064 1288 1336 1380 1421 1375 1504 1448 1509 1446 1240 1141 1200 1466 1649 1687 1521 1340 1206 1124 1143 1286 1233 1107 1048 1079 1173 1236 1296 1301 1250 1234 1414 1621 1792 1885 1901 1908 1909 1858
557 752 680 633 739 807 794 788 837 822 728 700 681 566 599 791 916 972 988 1033 1167 1100 860 758 975 1178 1230 1286 1129 870 1093 1269 1200 1093 1078 1125 1398 1637 1780 1704 1544 1442 1368 1345 1394 1402 1330 1193 1070 1081 1142 1201 1222 1196 1118 1155 1179 1137 1164 1304 1444 1547 1582
559 569 592 552 560 579 638 738 810 792 914 925 875 883 886 941 955 980 1105 1038 1004 784 836 878 923 871 972 1095 1120 1243 1254 1125 1231 1134 1027 987 1074 1264 1465 1648 1724 1639 1583 1584 1618 1568 1376 1210 1157 1092 1095 1138 1154 1118 974 930 843 648 683 798 885 979 1286
466 528 545 557 586 515 537 643 670 562 634 749 857 945 924 1055 1139 1049 1148 1199 1129 1231 1329 1127 1043 1086 1042 961 1004 1246 1625 1601 1560 1268 935 953 846 972 1195 1426 1634 1748 1811 1758 1760 1759 1748 1617 1195 924 896 853 804 682 670 600 501 493 492 465 460 875 1305
328 410 567 676 701 616 581 518 720 739 673 670 772 847 865 882 1048 1133 1119 1117 1087 1013 829 814 931 1063 1175 1253 1006 1148 1595 1903 1887 1760 1422 1082 1019 925 1086 1312 1526 1639 1718 1808 1845 1892 1826 1580 1358 1332 1176 878 762 669 595 536 498 453 415 361 429 621 1045
235 292 353 511 658 669 620 399 681 794 739 644 695 727 826 814 963 1124 1170 1196 1451 1542 1340 1256 1214 1141 932 956 1145 1025 1107 1418 1656 1758 1628 1544 1557 1364 1275 963 888 1185 1476 1604 1681 1743 1714 1557 1228 1253 1538 1657 1450 1269 1085 916 797 716 702 713 683 637 637
10 204 310 374 440 508 554 409 309 441 644 742 766 770 749 729 790 955 1090 1255 1455 1506 1505 1493 1436 1345 1299 1087 956 1035 1133 1221 1294 1416 1514 1627 1632 1594 1633 1448 1235 1182 1215 1260 1300 1363 1410 1149 1149 1004 1037 1447 1681 1568 1466 1365 1321 1300 1326 1336 1309 1272 1222
0 12 211 287 348 392 452 449 416 401 514 528 554 607 728 829 884 929 938 946 959 983 1019 974 907 846 716 624 678 799 952 947 893 984 1107 1146 1258 1430 1554 1597 1535 1438 1426 1328 1262 1155 1054 843 631 909 876 966 1158 1178 1117 1052 970 926 841 868 922 992 1034
190 182 29 67 206 307 374 390 391 367 355 361 464 515 467 581 532 602 555 575 540 569 492 464 456 484 494 468 528 500 551 707 842 924 934 1040 1044 1084 1219 1202 1050 924 844 811 807 818 805 515 297 407 572 686 718 703 696 676 633 614 578 523 509 578 663
0 0 12 105 0 0 0 0 0 0 0 99 180 227 248 277 291 303 315 322 331 322 334 333 291 214 219 258 163 207 349 490 578 656 771 817 792 828 861 802 703 582 496 384 428 512 469 329 249 274 349 571 620 554 524 473 413 345 305 326 326 291 256
0 0 0 0 0 0 0 0 0 0 0 0 0 0 7 15 20 41 120 117 122 138 152 106 181 211 221 205 190 53 22 49 60 93 255 385 476 516 476 435 321 260 197 203 107 103 206 233 235 271 275 302 336 323 281 249 69 17 41 60 54 91 110
0 0 0 0 0 0 0 0 0 0 0 0 0 0 0 0 0 0 0 4 11 19 25 0 18 110 124 54 0 0 0 0 0 0 0 0 51 116 169 191 61 236 167 156 124 120 101 108 132 163 168 140 55 5 0 34 51 9 0 4 12 0 0
0 0 0 0 0 0 0 0 0 0 0 0 0 0 0 0 0 0 0 0 0 0 0 0 0 0 0 9 10 0 0 0 0 0 0 132 0 0 28 68 128 109 115 98 26 6 41 17 12 8 2 0 0 0 1 42 29 12 0 3 21 48 38
0 0 0 0 0 0 0 0 0 0 0 0 0 0 0 0 0 0 0 0 0 0 0 0 0 0 0 0 0 0 0 1 2 0 0 0 0 0 0 0 0 0 0 42 10 1 17 14 20 3 0 0 0 0 0 0 0 0 0 2 4 5 2
0 0 0 0 0 0 0 0 0 0 0 0 0 0 0 0 0 0 0 0 0 0 0 4 0 0 0 0 0 0 0 0 0 0 0 0 0 0 0 0 0 0 0 0 0 0 6 37 23 7 9 0 0 5 10 8 7 3 0 0 0 0 0
0 0 0 0 0 0 0 0 0 0 0 0 0 0 0 0 0 0 0 0 0 0 0 0 0 0 0 0 0 0 0 0 0 0 0 0 0 0 0 0 0 0 0 0 0 0 0 0 21 0 28 29 20 13 9 8 6 2 0 0 0 0 0
0 0 0 0 0 0 0 0 0 0 0 0 0 0 0 0 0 0 0 0 0 0 0 0 0 0 0 0 0 0 0 0 0 0 0 0 0 0 0 0 0 0 0 0 0 0 0 0 25 36 29 16 25 20 11 2 0 0 0 0 0 0 0
0 0 0 0 0 0 0 0 0 0 0 0 0 0 0 0 0 0 0 0 0 0 0 0 0 0 0 0 0 0 0 0 0 0 0 0 0 0 0 0 0 0 0 0 0 0 0 0 0 0 0 0 0 0 0 0 0 0 0 0 0 0 0

ECMWFFLT1_con_mucape_138.txt.gz
CAPE
0 0 0 16 57 134 182 221 283 369 420 497 581 675 791 992 1031 1053 1041 1048 1178 1157 1332 1534 1631 1639 1692 1666 1602 1560 1468 1341 1288 1297 1394 1263 1254 1384 1591 1757 1868 1922 2027 2135 2157 2127 2303 2440 2505 2462 2480 2542 2622 2527 2550 2554 2714 2962 2850 2867 2615 3102 2640
0 0 0 11 58 148 197 248 277 378 436 502 560 653 814 1018 1089 1135 1125 1101 1136 1215 1426 1594 1803 1654 1668 1725 1732 1670 1602 1493 1527 1875 1554 1583 1798 1462 1530 1599 1723 1800 1858 1939 1971 1953 2258 2356 2411 2408 2370 2517 2664 2396 2361 2440 2584 2543 2650 2720 2988 3006 3129
0 0 0 9 52 154 210 256 351 398 470 534 584 636 830 1055 1111 1175 1224 1221 1182 1230 1507 1631 1912 1756 1712 1730 1799 1835 1771 1612 1552 1793 1658 1575 1679 1620 1573 1534 1550 1625 1681 1751 1815 1885 2258 2236 2342 2347 2346 2336 2320 2366 2423 2444 2592 2640 2609 2804 3358 3559 3273
0 0 0 10 53 135 268 277 356 420 496 588 630 669 817 1092 1162 1160 1230 1294 1278 1323 1544 1670 1905 1893 1801 1782 1772 1903 1962 1915 1780 1762 1727 1560 1642 1833 1786 1653 1646 1693 1748 1756 1898 2042 2154 2204 2288 2294 2978 2280 2257 2243 2388 2554 2621 2736 2732 2824 3140 3252 3308
10 0 1 1 20 92 251 335 396 439 512 629 676 760 815 1053 1212 1206 1236 1319 1336 1401 1522 1705 1942 2018 1903 1799 1773 1819 2094 2077 2038 1976 1867 1745 1712 1945 1925 1919 1796 1826 1821 1807 1970 2413 2337 2206 2103 2206 2245 2365 2254 2218 2323 2468 2554 2716 2737 2821 2977 2906 2998
20 2 0 2 15 71 214 324 389 437 515 639 718 752 817 1030 1228 1283 1287 1454 1423 1444 1478 1664 1884 2155 1995 1912 1855 1888 2051 2195 2204 2140 1942 1826 1789 1956 1966 2049 2037 1953 1866 1849 2104 2293 2369 2310 2132 2070 2104 2145 2155 2158 2164 2397 2518 2558 2648 2672 2830 2780 2846
12 21 5 8 18 55 182 297 367 427 490 628 730 774 847 1004 1240 1327 1342 1400 1554 1504 1521 1634 1825 2043 2054 1980 1966 2036 2026 2229 2316 2285 2155 1947 1815 1960 1964 1973 2347 2066 2023 1993 1993 2145 2247 2372 2406 2224 2137 2068 2226 2121 2192 2298 2435 2445 2525 2463 2651 2624 2670
19 52 20 19 31 54 116 260 330 398 464 569 712 786 833 949 1167 1309 1370 1410 1509 1521 1558 1608 1707 1922 2029 2024 2027 2014 2111 2254 2355 2449 2317 2162 1980 2072 1959 1886 2132 2130 2120 2086 2098 2127 2172 2238 2318 2454 2328 2220 2141 2152 2140 2244 2295 2249 2357 2398 2402 2528 2586
75 105 77 55 48 64 94 210 295 355 427 504 661 782 859 931 1091 1234 1343 1409 1488 1544 1572 1587 1638 1783 1953 2022 2035 2056 2195 2298 2427 2436 2441 2353 2189 2077 2075 1978 1976 2012 2020 2054 2107 2209 2252 2236 2196 2320 2432 2441 2427 2304 2275 2293 2264 2248 2333 2366 2363 2421 2521
117 142 148 90 76 85 103 106 238 305 376 444 582 746 842 937 1044 1153 1262 1348 1445 1522 1547 1567 1570 1653 1834 1959 1998 2032 2214 2349 2420 2416 2477 2505 2415 2248 2032 2084 2024 2127 2012 1997 2019 2087 2190 2198 2193 2256 2369 2446 2523 2373 2333 2262 2308 2333 2302 2372 2371 2398 2489
33 118 171 171 168 161 131 122 129 268 333 383 499 679 835 936 1024 1115 1190 1268 1373 1470 1499 1538 1546 1568 1700 1838 1913 1955 2082 2321 2380 2413 2470 2509 2506 2463 2303 2126 2114 2148 2188 2180 2134 2030 1884 2066 2056 2156 2285 2343 2442 2450 2338 2314 2354 2380 2346 2344 2414 2442 2468
109 153 150 173 176 182 186 189 185 213 294 342 443 621 799 928 1017 1095 1152 1214 1290 1390 1432 1478 1529 1542 1613 1711 1784 1827 1883 2113 2295 2375 2421 2461 2470 2454 2417 2340 2261 2243 2273 2194 2055 1964 1877 1884 1846 2025 2137 2304 2390 2428 2446 2422 2386 2412 2459 2407 2443 2485 2530
383 294 282 240 168 178 162 179 193 212 227 242 405 566 760 901 1003 1076 1139 1178 1232 1300 1357 1412 1497 1515 1550 1604 1644 1682 1724 1813 2084 2238 2302 2342 2368 2361 2341 2302 2263 2256 2239 2218 2103 2042 1950 1989 1996 2033 2057 2134 2267 2287 2356 2353 2288 2342 2381 2425 2448 2486 2549
870 539 423 372 307 222 130 204 225 239 216 238 350 515 721 871 980 1072 1127 1177 1209 1270 1297 1362 1457 1477 1503 1539 1568 1563 1560 1608 1780 2012 2130 2209 2283 2319 2325 2244 2128 2106 2130 2118 2075 2079 2014 1907 1942 1979 1941 1949 2071 2281 2328 2278 2217 2226 2264 2298 2324 2331 2444
721 616 500 433 398 366 248 235 228 274 296 298 293 471 689 848 972 1058 1128 1186 1266 1351 1384 1421 1390 1414 1439 1458 1506 1526 1504 1516 1574 1707 1898 2188 2201 2291 2272 2166 1962 1961 2054 2122 2094 2054 1969 1830 1795 1776 1748 1747 1900 2108 2209 2186 2169 2186 2211 2229 2285 2249 2303
786 670 624 542 501 471 394 299 259 245 243 309 337 421 658 839 985 1088 1162 1218 1291 1397 1462 1445 1394 1349 1353 1363 1395 1441 1480 1502 1541 1598 1714 1900 2067 2158 2196 2150 2095 2090 2126 2147 2097 1935 1728 1572 1508 1480 1560 1680 1725 1786 1878 2053 2131 2352 2728 2779 2508 2281 2214
721 676 635 557 517 550 444 369 290 240 231 246 266 390 630 840 980 1097 1172 1226 1317 1442 1504 1510 1476 1407 1364 1346 1327 1330 1384 1454 1523 1576 1655 1779 1898 2015 2068 2099 2155 2184 2161 2121 2099 1975 1840 1626 1485 1375 1422 1450 1664 1709 1660 1787 1854 2276 1973 2144 2388 2942 2331
892 770 697 665 614 554 481 389 323 324 341 341 364 434 601 806 994 1127 1231 1248 1330 1477 1591 1644 1658 1583 1498 1427 1372 1327 1310 1354 1404 1485 1574 1648 1768 1861 1897 1930 1939 1946 1957 1947 1882 1770 1604 1511 1487 1447 1498 1517 1511 1562 1681 1733 1678 1700 1763 1842 1918 2733 3132
848 924 928 888 766 596 510 440 342 452 501 502 498 497 583 711 891 1076 1216 1248 1308 1414 1603 1693 1741 1746 1710 1635 1542 1480 1421 1386 1375 1375 1381 1404 1449 1555 1651 1662 1588 1632 1619 1540 1480 1439 1405 1403 1420 1331 1400 1428 1438 1474 1547 1672 1352 1568 1633 1746 1886 1977 2481
838 714 632 656 669 664 610 504 291 260 238 400 523 602 615 661 742 892 1075 1196 1288 1410 1552 1628 1645 1652 1734 1793 1789 1718 1660 1614 1579 1590 1578 1527 1485 1474 1434 1383 1432 1506 1522 1443 1357 1319 1260 1073 1103 1069 1097 1242 1328 1418 1468 1583 1478 1519 1537 1597 1730 1903 2010
894 842 770 680 619 555 451 321 368 182 184 179 190 405 663 727 722 761 863 993 1166 1311 1433 1519 1582 1598 1567 1657 1717 1722 1765 1638 1644 1632 1648 1633 1658 1652 1482 1306 1278 1308 1372 1372 1324 1259 1139 1020 950 897 901 963 1122 1256 1336 1362 1361 1382 1484 1575 1631 1685 1727
827 821 842 793 689 588 562 467 352 315 220 244 158 195 209 429 638 734 762 788 848 991 1145 1250 1395 1471 1216 1312 1331 1174 878 710 1022 1256 1522 1514 1512 1536 1453 1222 1156 1223 1246 1161 1069 929 916 925 832 804 768 799 905 1016 1109 1185 1220 1255 1287 1385 1481 1577 1636
725 760 762 756 686 667 562 562 611 655 614 543 484 402 425 486 522 525 551 704 864 934 996 1058 1128 1109 962 940 935 1057 1076 908 754 700 973 1394 1394 1353 1329 1219 1212 1240 1125 1095 1043 1037 1062 1012 949 848 801 807 837 886 961 1037 1102 1170 1198 1196 1156 1237 1344
655 690 662 661 598 620 699 721 658 646 764 786 686 701 690 644 513 468 507 616 663 677 745 926 822 928 742 548 719 818 886 770 576 575 772 780 1175 1260 1278 1127 875 1046 1294 1260 1190 1206 1145 1080 977 893 833 854 876 872 912 941 984 1058 1093 1106 1077 1024 974
313 465 528 553 503 493 496 481 534 616 766 796 828 795 703 575 517 446 519 592 644 756 765 629 348 340 461 491 558 720 712 753 799 751 607 760 809 1077 1097 1086 884 802 784 729 1129 1327 1340 1214 1098 987 894 820 786 791 804 825 841 865 894 894 842 756 658
298 349 485 543 484 477 497 465 524 667 695 597 679 747 748 683 600 681 693 737 626 721 736 717 566 962 1314 946 755 810 885 882 839 816 730 1085 1437 1364 1271 1212 1067 807 686 886 993 1082 1251 1564 1442 1261 1091 956 832 798 730 678 664 646 618 568 516 462 436
259 285 401 586 521 544 498 387 355 593 737 791 764 768 651 611 735 780 721 648 609 582 640 677 759 745 827 982 852 763 749 687 737 885 1099 1241 1452 1463 1329 1205 1073 995 817 686 723 952 1200 1494 1687 1626 1507 1425 1259 1077 1016 931 861 729 614 531 482 586 680
252 288 304 361 465 512 464 417 363 361 440 333 436 540 631 702 724 496 327 378 430 492 606 855 1075 1169 1209 1252 1052 920 863 768 833 988 949 978 997 1046 1063 1097 1145 1120 1019 766 641 644 875 1045 1218 1250 1049 1089 1287 1282 1166 986 1049 1118 1059 975 963 983 989
215 215 272 301 367 412 438 396 414 392 390 356 422 471 424 325 567 759 762 849 780 754 891 1017 953 878 840 808 785 685 614 608 713 777 858 901 911 818 702 643 703 864 1045 1215 789 659 558 750 870 787 628 641 634 706 770 746 855 935 1048 1119 1071 949 800
203 200 204 236 290 351 398 393 341 307 324 369 392 439 406 305 370 362 479 521 460 386 574 626 688 728 775 718 636 569 471 378 377 488 553 591 618 679 698 727 634 480 524 600 624 631 599 540 479 372 277 298 370 458 566 643 680 642 631 563 501 436 360
0 30 0 64 177 175 188 199 162 47 132 190 226 258 257 286 296 302 388 385 415 387 300 329 399 512 545 465 393 332 312 268 226 188 195 193 194 205 220 274 256 266 323 340 433 397 285 157 195 170 140 145 204 236 262 138 77 68 110 165 306 327 322
0 0 0 0 0 0 0 0 0 0 0 0 0 0 80 129 139 174 164 175 198 210 234 261 276 279 271 246 236 242 231 212 167 128 120 93 82 116 164 211 230 187 160 131 174 145 175 143 139 129 99 48 57 47 30 22 14 20 6 28 100 112 74
0 0 0 0 0 0 0 0 0 0 0 0 0 0 0 0 0 0 14 14 15 15 18 20 95 127 144 153 151 146 143 140 142 69 68 78 88 100 78 122 120 58 47 124 139 126 3 3 77 67 64 58 35 3 0 0 0 0 0 0 13 15 7
0 0 0 0 0 0 0 0 0 0 0 0 0 0 0 0 0 0 0 0 0 0 0 0 0 0 0 0 0 0 0 0 44 0 0 1 4 6 24 49 67 68 81 88 87 102 102 13 1 0 0 0 0 0 0 0 0 0 1 10 0 0 0
0 0 0 0 0 0 0 0 0 0 0 0 0 0 0 0 0 0 0 0 0 0 0 0 0 0 0 0 0 0 0 0 0 0 0 0 0 0 0 0 0 4 4 1 0 3 2 75 2 0 0 0 0 0 0 0 2 0 0 0 0 0 0
0 0 0 0 0 0 0 0 0 0 0 0 0 0 0 0 0 0 0 0 0 0 0 0 0 0 0 0 0 0 0 0 0 0 0 0 0 0 0 0 0 0 0 0 0 0 7 12 31 13 12 9 5 2 0 1 1 0 0 0 0 0 0
0 0 0 0 0 0 0 0 0 0 0 0 0 0 0 0 0 0 0 0 0 0 0 0 0 0 0 0 0 0 0 0 0 0 0 0 0 0 0 0 0 0 0 0 0 0 8 37 49 36 20 7 3 2 7 1 0 0 0 0 0 0 0
0 0 0 0 0 0 0 0 0 0 0 0 0 0 0 0 0 0 0 0 0 0 0 0 0 0 0 0 0 0 0 0 0 0 0 0 0 0 0 0 0 0 0 0 0 0 0 0 13 8 5 0 0 0 0 0 0 0 0 0 0 0 0

ECMWFFLT1_con_mucape_141.txt.gz
CAPE
70 89 344 363 290 392 554 716 789 879 1093 1178 1264 1284 1301 1412 1611 1834 1843 2166 2254 2502 2540 2609 2610 2672 2621 2477 2580 2730 2496 2604 2540 2524 2514 2562 2466 2798 3010 2762 2753 3155 2710 2726 2742 3014 3206 3331 3409 3368 3456 3574 3503 3641 3768 3775 3887 3580 3878 4589 4144 3835 3710
45 47 161 324 382 446 594 768 861 915 1052 1140 1265 1408 1346 1464 1734 1758 1848 2146 2252 2388 2468 2497 2631 2706 2616 2625 2560 2900 2827 2744 2729 2862 2582 2953 3112 3045 2832 2969 2954 3312 3456 3045 2930 3285 3276 3187 3169 3304 3326 3479 3382 3689 3418 3586 3646 3716 3351 4051 3705 3908 3957
44 50 188 307 398 512 672 783 896 910 1021 1081 1199 1346 1409 1680 1810 1749 1880 2024 2198 2315 2352 2467 2700 2656 2619 2789 2734 2843 2743 2662 2720 2659 2586 2320 2536 2167 2517 2899 2963 2727 2664 2888 3328 3032 3084 2996 3473 3437 3392 3234 2988 3408 3598 3440 3606 3363 3519 4201 3618 3194 3793
33 38 200 372 519 673 794 849 931 949 987 1034 1160 1299 1418 1880 1777 1858 1921 1914 2068 2243 2348 2344 2503 2444 2570 2759 2664 2786 2838 2902 2620 2223 2155 2193 2264 2311 2628 2834 2876 2600 2839 2802 2501 2750 2481 2833 3052 3444 3771 3450 3309 3108 3228 3268 3048 3212 3475 4252 3802 3349 3679
22 35 153 298 430 670 684 876 989 1034 1047 1115 1244 1393 1525 1835 1754 1856 1873 1799 1787 1942 2102 2140 2149 2288 2511 2553 2325 2290 2446 2586 2733 2525 2398 2370 2540 2565 2461 2189 2316 2476 2458 2420 2720 3280 3318 3285 2787 3081 3272 3694 3191 3207 3380 3393 3144 3496 3572 3993 3597 3312 3214
19 29 86 220 362 528 671 747 821 1021 1046 1241 1314 1346 1455 1582 1733 1801 1905 1987 1869 1908 2053 2145 2179 2454 2626 2352 2097 2079 2525 2932 3052 3042 2804 2837 2762 2405 2360 2438 2274 2451 2325 2666 2453 2648 3195 2987 2816 2653 2630 2705 2739 2680 2703 2857 2942 2871 3266 3696 3460 3085 2981
35 28 89 141 284 422 647 802 755 874 1074 1293 1350 1355 1366 1462 1845 1816 1827 1964 1982 2016 2056 2194 2182 2531 2606 2290 2220 2422 2640 2607 2983 2829 2839 2739 2673 2653 2646 2694 2814 2562 2446 2721 2685 2566 2746 3048 3059 3044 2735 2515 2668 2484 2680 3060 2926 3000 3362 3643 3758 3584 3508
136 23 97 139 214 320 477 774 784 898 1190 1282 1341 1428 1287 1377 1762 1902 1987 2174 2203 2184 2225 2262 2161 2488 2655 2644 2436 2255 2307 2226 2728 2838 2886 2636 2647 2681 2551 2679 2793 3058 3089 2751 2758 2877 2550 2786 2627 2903 2755 2638 2699 2890 2704 3009 3605 2866 2830 3330 3493 3226 2892
247 111 108 98 156 234 397 736 810 929 1162 1310 1445 1518 1504 1684 1924 2096 2313 2425 2478 2458 2547 2564 2486 2422 2924 2949 2834 2679 2416 2460 2729 2775 2815 2554 2464 2377 2243 2462 2643 2956 3001 2605 2367 2793 2681 2607 2545 2866 3062 2895 2926 3188 3034 3289 3045 2966 3344 3428 3514 3193 2768
164 184 146 203 198 237 516 727 876 1024 1222 1407 1671 1709 1786 2033 2248 2392 2506 2591 2631 2600 2708 2745 2569 2628 3040 3026 2881 2662 2665 2779 2712 2531 2544 2421 2424 2304 2179 2151 2417 2867 2730 2575 2438 2437 2926 2793 2685 2795 3487 3285 3327 3453 3389 3352 3198 3173 3346 3681 3475 3094 3218
378 489 500 315 330 415 591 611 852 1132 1243 1594 1769 1556 1891 2156 2336 2428 2625 2707 2684 2751 2691 2668 2601 2615 2886 2893 2899 2851 2786 2722 2630 2621 2635 2433 2290 2259 2119 2062 2187 2616 2654 2518 2433 2578 2665 3077 3185 3229 3476 2977 3088 3383 3486 3472 3383 3557 3215 3100 3104 3110 2961
517 623 673 550 500 537 515 743 1081 1314 1454 1706 1543 1660 2138 2206 2130 2431 2730 2729 2748 2840 2791 2738 2780 2797 2918 2979 2957 3143 3175 3044 2769 2670 2709 2624 2366 2239 2069 2102 2204 2523 2774 2643 2692 2857 2748 2718 2904 2883 3182 3086 2912 3098 3461 3717 3745 3768 3652 3129 3171 3200 3149
480 714 762 606 691 722 994 1215 1247 1384 1540 1450 1410 1475 1926 2090 2161 2419 2577 2649 2655 2938 2990 3006 3015 2973 3039 3023 2921 3322 3343 3203 2964 2884 2705 2779 2437 2206 2220 2278 2289 2420 2553 2717 2761 2741 2643 2577 2809 2930 2883 3102 3050 2906 3334 3735 3602 3889 3921 3592 3332 3314 3502
741 766 960 1086 914 949 953 1061 1269 1434 1489 1390 1440 1468 1742 1989 2153 2357 2454 2539 2651 2833 2900 2986 2990 3008 2990 2988 3018 3212 3245 3189 3095 3208 3050 2906 2923 2754 2485 2382 2344 2584 2672 2750 2795 2640 2581 2612 2608 2807 2908 2903 2952 3184 3326 3683 3681 3864 4047 3761 3499 3329 3446
1051 1098 1209 1143 1372 1284 1134 1237 1367 1373 1311 1358 1381 1407 1582 1807 1926 2289 2568 2530 2674 2665 2782 2921 2990 3024 3054 3035 3111 3233 3287 3226 3300 3449 3479 3355 3462 3138 2791 2731 2806 2941 3020 2977 2730 2364 2510 2760 2657 2678 2692 2734 2998 3162 3195 3068 3313 3320 3546 3641 3811 3593 3156
1118 1298 1289 1497 1491 1282 1108 1182 1218 1375 1484 1478 1430 1471 1361 1529 1891 2125 2169 2392 2564 2666 2788 2839 2883 3022 3002 3000 3134 3248 3306 3375 3340 3353 3402 3436 3498 3540 3320 3037 2965 2708 2862 2814 2718 2564 2781 2840 2884 2690 2618 2668 2916 3061 2878 2901 2929 3260 3133 3066 3206 3480 3194
756 1128 1153 1273 1367 1194 1066 952 1234 1357 1379 1403 1378 1544 1648 2039 2294 2227 2259 2490 2579 2711 2803 2820 2864 2926 2986 3015 3110 3226 3232 3208 3145 3167 3284 3402 3467 3580 3595 3534 3279 3219 3157 3022 2886 2900 3047 3081 2801 2698 2460 2397 2409 2508 2498 2502 2562 2909 2420 2278 2248 3038 3190
476 558 540 615 833 1143 1255 1235 1232 1239 1385 1575 1638 1525 1730 2101 2291 2317 2354 2646 2733 2851 2990 2859 2885 2838 2905 2955 3070 2977 2664 2564 2713 2824 3105 3192 3304 3480 3584 3621 3686 3675 3570 3184 2876 3252 2925 2732 2758 2809 2621 2328 2296 2212 2254 2358 2413 2157 1994 1881 1900 2374 2889
656 762 646 614 714 887 915 983 1151 1269 1329 1420 1567 1738 2150 2450 2262 2171 2442 2693 2850 3106 2856 2906 2892 2928 2962 2965 3026 2913 2667 2205 2152 2371 2690 2921 3118 3262 3334 3415 3441 3479 3441 3241 3113 2841 2982 2984 2736 2744 2686 2446 2451 2367 2204 2282 2256 1982 1725 1635 1556 1495 2112
780 828 888 828 742 650 660 911 1085 964 905 814 1260 1463 1753 1978 2351 2599 2699 2948 2898 2738 2913 3076 2954 2977 2818 2584 2460 2473 2440 2563 2444 2440 2452 2569 2664 2808 2944 3019 3114 3181 3183 3078 3137 2984 2823 2574 2531 2621 2775 2651 2574 2654 2330 1855 1992 1907 1629 1505 1409 1415 1384
729 721 732 675 638 691 739 724 715 1014 1013 1059 930 1069 1207 1760 2202 2346 2459 2390 2489 2822 2885 2896 2583 2448 2311 2210 2011 1884 1858 1881 2079 1850 1907 1793 1855 1803 2202 2429 2716 2877 3056 3137 2899 2851 2911 2748 2663 2600 2557 2432 2396 2328 2212 1770 1670 1436 1341 1372 1403 1414 1459
751 758 803 772 725 687 607 614 579 578 677 723 641 742 729 913 1194 2008 1868 2007 2295 2395 2562 2477 2376 2164 2176 1688 1617 1611 1588 1634 1627 1260 1160 1267 1768 1965 1720 1948 2330 2743 2501 2440 2664 2505 2731 2887 2541 2522 2589 2496 2324 1944 1945 1486 1024 1004 1124 1198 1262 1291 1319
707 775 771 778 718 713 650 600 568 602 615 489 322 254 265 217 351 621 1023 1272 1412 1818 1765 1665 1581 1593 1465 1345 1333 1419 1272 1124 886 996 979 1114 1340 1895 2100 1879 1440 1271 1362 1523 1726 2009 2074 2048 1820 1670 1715 1831 1750 1752 1932 770 791 837 920 1027 1106 1139 1200
618 672 650 658 699 679 639 619 601 567 561 688 510 403 273 330 456 419 613 792 964 1142 1163 1428 1588 1546 1297 1240 1192 1042 792 619 829 914 884 762 941 1091 1160 938 1106 999 838 918 1078 1325 1702 1355 1131 971 920 840 707 816 764 678 707 721 758 827 914 1012 1298
540 693 643 630 632 654 648 634 631 630 612 658 695 611 613 584 552 577 528 553 645 713 968 827 872 928 993 972 706 580 409 431 516 558 611 571 575 636 610 614 708 622 484 525 550 737 740 861 883 811 754 750 782 781 772 713 672 662 688 743 774 869 940
458 570 599 572 550 592 583 560 554 608 577 653 587 622 598 602 617 598 535 435 522 553 611 713 774 690 622 445 231 298 387 342 404 425 642 560 719 740 646 578 705 814 968 1108 948 555 406 716 643 788 741 699 817 897 886 856 796 698 636 601 568 606 644
385 485 571 609 514 562 542 468 519 729 738 627 582 576 569 542 597 591 569 538 551 570 610 573 573 618 595 446 346 342 349 357 345 383 560 730 768 802 900 964 927 955 932 957 727 764 748 662 798 896 965 938 966 997 1048 1042 1052 1001 873 795 727 691 611
358 370 452 481 553 604 553 474 474 578 556 555 549 604 631 624 620 617 634 576 480 326 538 560 557 547 527 486 457 719 434 294 502 529 553 566 668 762 865 965 973 904 870 867 873 877 961 907 756 770 771 821 902 974 1002 990 962 1076 1020 1040 995 888 777
356 391 392 433 500 513 456 458 439 423 374 429 507 495 539 538 514 590 502 424 385 475 490 604 657 563 449 469 514 540 502 549 596 627 674 681 748 867 920 939 926 908 859 804 817 832 712 795 884 797 706 620 632 608 617 641 624 580 593 578 592 604 672
287 303 356 409 444 451 398 399 381 386 434 401 416 418 364 439 354 352 474 323 228 72 348 482 554 424 372 346 250 243 248 264 278 323 319 303 312 414 556 598 641 670 650 602 518 503 532 522 630 714 695 628 443 340 322 319 262 214 216 225 222 216 253
184 215 241 312 338 380 384 363 328 303 308 358 353 342 228 314 249 268 142 250 220 207 262 316 288 267 239 195 177 155 155 155 165 154 131 145 184 209 262 281 294 345 396 422 458 398 381 361 363 367 405 313 256 207 198 194 176 106 107 138 35 31 38
0 62 112 138 162 240 274 273 254 232 226 241 258 258 229 227 252 225 190 245 157 166 132 216 129 186 186 172 137 116 134 135 121 107 101 109 127 175 208 206 191 205 218 235 219 205 210 192 249 272 275 248 213 179 136 117 114 29 57 45 21 6 6
0 0 0 0 0 14 104 137 152 147 159 195 165 171 176 192 188 204 211 218 207 212 197 184 49 108 28 133 190 193 182 137 137 111 125 145 130 135 161 180 202 176 180 192 167 153 129 106 4 4 10 122 123 101 81 76 67 17 0 0 0 0 0
2 0 0 0 0 0 0 0 0 0 0 0 0 38 52 64 72 91 140 17 0 101 75 9 97 174 192 154 158 49 0 0 0 102 132 155 173 169 155 146 142 155 164 152 125 109 112 113 105 85 67 3 88 76 74 44 0 0 0 0 0 0 0
4 0 0 0 0 0 0 0 0 0 0 0 0 0 0 0 0 0 0 0 6 53 10 0 0 0 0 0 0 0 0 0 0 0 120 120 98 113 115 108 130 137 126 116 116 116 119 115 91 80 83 75 63 30 0 0 0 0 0 0 0 0 0
10 3 0 2 9 14 8 8 1 0 0 0 0 0 0 0 0 0 0 0 6 35 38 39 18 1 0 0 0 0 0 0 0 0 0 0 0 0 0 0 28 21 39 50 16 3 34 0 0 57 17 20 4 0 0 0 0 0 0 0 0 0 0
12 11 7 11 7 31 49 50 28 2 0 0 0 0 0 0 0 0 0 0 4 7 9 50 34 9 0 0 0 0 0 0 0 0 0 0 0 0 0 0 0 0 0 0 0 0 0 32 7 30 0 0 0 0 0 0 0 0 0 0 0 0 0
96 64 60 99 45 63 47 36 32 10 2 4 2 0 0 0 0 0 0 0 1 2 16 29 60 47 4 0 0 0 0 0 0 0 0 0 0 0 0 0 0 0 0 0 0 0 0 0 0 18 16 0 0 0 0 0 0 0 0 0 0 0 0